This is the latest recevied weather packets stored in our database for station/object AE5HO. If no packets are shown the sender has not sent any weather packets the latest 10 day(s).
| Time | Temp. | Humidity | Pressure | Rain* | Wind** | Luminosity | Snow |
|---|---|---|---|---|---|---|---|
| 1787707639 | 34.44° C | 36% | 1013.3 hPa | 0 mm | - | 0 W/m² | - |
| 1787707335 | 34.44° C | 35% | 1013.3 hPa | 0 mm | - | 0 W/m² | - |
| 1787707030 | 34.44° C | 35% | 1013 hPa | 0 mm | - | 0 W/m² | - |
| 1787706729 | 34.44° C | 35% | 1013 hPa | 0 mm | - | 0 W/m² | - |
| 1787706426 | 34.44° C | 34% | 1013 hPa | 0 mm | - | 0 W/m² | - |
| 1787706121 | 34.44° C | 35% | 1013.4 hPa | 0 mm | - | 0 W/m² | - |
| 1787705816 | 34.44° C | 35% | 1013.1 hPa | 0 mm | - | 0 W/m² | - |
| 1787705511 | 34.44° C | 36% | 1013.4 hPa | 0 mm | - | 0 W/m² | - |
| 1787705208 | 34.44° C | 35% | 1013.7 hPa | 0 mm | - | 1 W/m² | - |
| 1787704907 | 35° C | 35% | 1013.1 hPa | 0 mm | - | 2 W/m² | - |
| 1787704603 | 35° C | 34% | 1013.4 hPa | 0 mm | - | 5 W/m² | - |
| 1787704298 | 35.56° C | 34% | 1013.4 hPa | 0 mm | - | 7 W/m² | - |
| 1787703998 | 36.11° C | 34% | 1013.7 hPa | 0 mm | - | 15 W/m² | - |
| 1787703693 | 36.11° C | 33% | 1013.3 hPa | 0 mm | - | 22 W/m² | - |
| 1787703388 | 36.11° C | 34% | 1013.7 hPa | 0 mm | - | 26 W/m² | - |
| 1787703083 | 36.11° C | 34% | 1013.6 hPa | 0 mm | - | 18 W/m² | - |
| 1787702779 | 36.67° C | 33% | 1013.7 hPa | 0 mm | - | 21 W/m² | - |
| 1787702475 | 36.67° C | 32% | 1013.8 hPa | 0 mm | - | 26 W/m² | - |
| 1787702175 | 37.22° C | 32% | 1013.8 hPa | 0 mm | - | 38 W/m² | - |
| 1787701870 | 37.22° C | 32% | 1013.8 hPa | 0 mm | - | 53 W/m² | - |
| 1787701566 | 37.78° C | 32% | 1013.9 hPa | 0 mm | - | 32 W/m² | - |
| 1787701261 | 37.22° C | 32% | 1013.7 hPa | 0 mm | - | 38 W/m² | - |
| 1787700957 | 37.78° C | 33% | 1014 hPa | 0 mm | - | 33 W/m² | - |
| 1787700652 | 37.78° C | 31% | 1013.8 hPa | 0 mm | - | 42 W/m² | - |
| 1787700348 | 37.78° C | 31% | 1013.6 hPa | 0 mm | - | 45 W/m² | - |
* Rain latest hour (hover to see other rain measurements)
** Current wind speed in m/s (hover to see current wind gust speed)